Temperature
18 18 18 18 18 18 18 18 18 18 18 18 17 18 18 18 18 18 18 17 17 17 17 17 17 17 17 17 17 17 17 17 16 16 16 16 16 16 16 16 16 16 16
18 18 18 18 18 18 18 18 18 18 18 17 17 17 18 17 18 18 17 17 17 17 17 17 17 17 17 17 17 17 17 16 16 16 16 16 16 16 16 16 16 16 16
18 18 18 18 18 18 18 18 18 18 17 17 17 17 17 17 17 17 17 17 17 17 17 17 17 17 17 17 17 16 16 16 16 16 16 16 16 16 16 16 16 16 16
18 18 18 18 18 18 18 18 18 18 18 17 17 17 17 17 17 17 17 17 17 17 17 17 17 17 17 17 16 16 16 16 16 16 16 16 16 16 16 16 16 15 15
18 18 18 18 18 18 18 18 18 18 18 17 17 18 17 17 17 17 17 17 17 17 17 17 17 16 17 16 16 16 16 16 16 16 16 16 16 16 16 16 15 15 15
18 18 18 18 18 18 18 17 18 18 18 17 17 17 17 17 17 17 17 17 17 17 17 17 17 16 16 16 16 16 16 16 16 16 16 16 16 16 15 15 15 15 15
18 18 18 18 18 17 18 17 17 17 17 17 17 17 17 17 17 17 17 17 17 17 17 17 17 16 16 16 16 16 16 16 16 16 16 16 16 15 15 15 15 15 15
18 18 18 18 18 17 17 17 17 17 17 17 17 17 17 17 17 17 17 17 17 17 17 17 17 17 16 16 16 16 16 16 16 16 16 15 15 15 15 15 15 15 15
18 18 18 18 18 18 17 18 17 17 17 17 17 17 17 17 17 17 17 17 17 17 17 17 17 17 17 16 16 16 16 16 16 16 15 15 15 15 15 15 15 15 15
18 18 18 18 18 18 17 17 17 17 17 17 17 17 17 18 17 17 17 17 17 17 17 17 17 17 17 16 16 16 16 16 16 16 16 15 15 15 15 15 15 15 15
18 18 18 18 18 18 17 17 17 17 17 17 17 17 17 17 17 17 17 18 17 17 17 17 17 17 17 17 16 16 16 16 16 16 15 15 15 15 15 15 15 15 15
18 18 18 18 18 18 17 17 17 17 17 17 17 17 17 17 17 17 18 18 18 18 17 17 17 17 17 17 17 16 16 16 16 16 16 16 16 15 15 15 15 15 15
18 18 18 18 18 18 17 17 17 17 17 17 17 17 17 17 17 17 17 17 17 18 18 17 17 17 17 17 17 17 16 16 16 16 16 16 16 15 15 15 15 15 15
18 18 18 18 17 17 17 17 17 17 17 17 17 17 17 17 17 17 17 17 17 17 17 17 17 17 17 17 17 17 17 16 16 16 16 16 16 15 15 15 15 15 15
18 18 18 17 17 17 17 17 17 17 17 17 17 17 17 17 17 17 17 17 17 17 17 17 17 17 17 17 17 17 17 16 16 16 16 16 16 15 15 15 15 15 15
17 17 17 17 17 17 17 17 17 17 17 17 17 17 17 17 17 17 17 17 17 17 17 17 17 17 17 17 17 17 16 16 16 16 16 16 16 16 15 15 15 15 15
17 17 17 17 17 17 17 17 17 17 17 17 17 17 17 17 17 16 16 16 16 17 17 17 17 17 17 17 17 17 16 16 16 16 16 16 16 16 15 15 15 15 15
17 17 17 17 17 17 17 17 17 17 17 17 17 16 16 16 16 16 16 16 16 16 16 16 17 17 16 16 16 16 16 16 16 16 16 16 16 15 15 15 15 15 15
17 17 17 17 17 17 17 17 17 17 17 16 16 16 16 16 16 16 16 16 16 16 16 16 16 16 16 16 16 16 16 16 16 16 16 16 15 15 15 15 15 15 15
17 17 17 17 17 16 16 16 16 16 16 16 16 16 16 16 16 16 16 16 16 16 16 16 16 16 16 16 16 16 16 15 15 15 15 15 15 15 15 15 15 15 14
17 17 17 16 16 16 16 16 16 16 16 16 16 16 16 15 15 15 15 15 15 15 15 15 15 15 15 15 15 15 15 15 15 15 15 15 15 15 15 14 14 14 14
17 16 16 16 16 16 16 16 16 16 16 16 16 15 15 15 15 15 15 15 15 15 15 15 15 15 15 15 15 14 14 14 14 14 14 14 14 14 14 14 14 14 13
16 16 16 16 16 16 16 16 15 15 15 15 15 15 15 15 15 15 15 15 15 15 15 14 14 14 14 14 14 14 14 13 13 13 13 13 13 13 13 13 13 13 13
16 16 16 16 16 15 15 15 15 15 15 15 15 15 15 15 15 14 14 14 14 14 14 14 14 14 13 13 13 13 13 13 13 13 12 12 13 13 13 13 12 12 12
16 15 15 15 15 15 15 15 15 15 15 14 14 14 14 14 14 14 14 14 14 14 14 13 13 13 13 13 12 12 12 12 12 12 12 12 12 12 12 12 12 12 11
15 15 15 15 15 15 15 15 14 14 14 14 14 14 14 13 13 13 13 13 13 13 13 13 13 12 12 12 12 12 11 11 11 11 11 11 11 11 11 11 11 11 11
Wind_Speed
5 5 5 6 7 6 5 4 4 3 3 4 7 9 9 10 11 12 12 15 15 14 14 13 12 12 11 11 10 10 10 10 10 10 9 9 9 9 9 8 8 8 8
8 6 5 5 6 7 7 6 5 3 3 4 5 8 10 11 11 12 11 13 14 14 13 13 13 12 12 11 11 11 10 10 10 10 10 10 9 9 9 9 8 8 8
11 8 5 4 5 7 7 4 3 3 3 3 4 6 7 9 10 11 12 11 12 14 14 14 13 13 12 12 11 11 11 11 11 11 11 10 10 10 10 9 9 9 9
13 9 5 4 6 6 5 3 3 3 3 3 3 3 4 6 8 10 11 11 11 11 13 14 14 13 13 12 12 12 11 11 11 12 12 12 11 11 11 10 10 10 10
12 9 5 4 6 5 3 3 2 3 3 3 3 3 3 4 5 9 9 11 12 11 12 13 14 14 13 13 12 12 12 12 12 12 12 12 12 12 12 11 11 11 11
11 9 5 6 6 4 3 3 3 2 2 3 2 2 2 3 4 5 7 9 11 12 13 12 12 13 13 13 13 12 13 13 13 13 12 12 12 13 13 13 12 12 12
10 8 5 5 5 5 5 5 3 3 2 2 3 2 2 1 3 4 4 5 7 11 12 13 12 12 11 14 14 13 13 13 13 13 13 13 13 13 14 13 14 14 14
10 9 7 6 6 5 5 5 4 3 1 2 3 3 1 3 3 3 3 5 6 8 9 12 13 13 12 11 13 14 14 13 12 12 13 13 13 14 14 14 14 14 14
10 8 8 6 6 6 5 5 5 5 3 1 2 4 3 3 2 2 3 4 5 5 5 9 12 14 14 13 13 14 15 14 13 12 12 12 12 12 12 13 13 13 14
9 9 9 8 6 5 6 6 5 4 5 3 1 1 3 4 3 1 3 2 4 5 6 7 9 13 14 14 14 15 16 16 15 14 13 12 12 12 12 12 13 13 13
8 9 9 8 7 6 6 6 5 5 4 4 3 2 1 1 2 3 2 3 2 4 5 6 6 9 13 15 15 16 17 17 17 16 15 14 13 13 13 12 13 13 13
6 8 9 8 7 6 6 6 6 6 5 4 4 3 3 3 3 3 3 3 3 4 4 5 5 8 12 15 16 17 19 19 19 18 17 16 15 14 14 13 13 13 12
6 8 9 8 7 7 7 6 6 6 6 5 5 4 3 3 3 3 3 3 3 3 2 3 5 7 11 14 15 18 19 20 20 20 19 18 17 16 16 15 14 13 13
8 8 9 8 8 8 8 6 5 6 5 5 6 5 3 3 3 3 4 3 1 2 2 4 3 6 9 13 16 18 16 19 20 20 20 19 18 18 17 17 16 16 15
8 8 9 9 8 8 8 7 5 6 5 5 5 5 3 3 3 3 3 4 5 3 4 4 3 4 7 10 13 14 15 18 19 19 19 19 19 19 19 19 18 18 17
8 8 9 9 9 8 8 7 6 5 6 5 4 5 4 3 2 2 3 3 4 5 4 4 4 4 4 6 11 13 15 16 18 19 19 20 20 20 20 20 20 20 19
8 8 9 9 9 8 8 8 7 6 6 5 4 5 5 4 3 2 2 3 3 4 4 4 3 2 2 3 4 9 12 12 13 18 20 20 21 21 20 20 20 20 20
7 8 8 8 9 8 8 9 8 7 6 6 5 5 5 4 4 3 2 3 3 4 4 4 3 2 3 4 3 4 6 8 11 14 17 19 20 20 20 20 21 21 21
6 6 7 8 8 7 7 8 8 7 6 6 6 5 5 4 4 3 3 3 2 2 3 3 3 2 2 2 1 3 3 3 7 10 12 14 16 17 18 19 20 21 21
7 6 6 6 6 6 6 6 6 6 5 4 4 5 5 5 6 5 4 4 3 2 2 2 3 2 2 2 1 2 3 3 4 5 7 8 10 12 15 17 18 19 21
6 6 6 5 5 5 5 6 5 6 5 5 4 4 4 5 7 6 4 4 4 3 2 2 2 2 2 1 2 3 3 4 4 3 3 4 4 6 9 13 16 18 19
5 5 5 5 5 4 5 7 7 5 5 5 5 4 4 5 6 7 7 7 7 5 5 3 3 3 4 4 3 3 3 2 4 3 2 4 3 5 6 10 13 15 16
5 5 4 5 4 3 5 6 7 5 4 4 5 5 4 4 4 4 5 6 6 7 7 5 5 5 4 5 3 3 3 4 5 4 1 4 4 5 7 11 14 15 15
5 5 4 4 3 2 4 5 6 4 3 4 4 4 4 3 2 3 3 3 4 4 5 4 5 6 5 4 4 4 4 4 4 4 3 4 5 5 6 8 12 12 12
5 4 4 4 4 2 2 3 4 2 2 2 2 2 2 2 3 3 2 3 4 4 4 5 6 6 6 5 3 1 1 1 4 4 3 3 4 4 4 5 9 11 12
5 5 5 4 4 3 2 2 4 2 2 1 0 0 1 1 1 1 2 2 4 4 2 2 3 4 4 4 5 4 4 3 3 4 3 2 3 2 4 4 4 7 9
Wind_Direction
168 171 178 185 192 193 191 199 205 189 172 164 165 159 157 159 163 165 174 178 176 175 174 174 175 175 175 175 174 174 174 173 172 173 173 172 172 172 169 167 167 167 166
168 170 176 184 194 195 192 190 184 173 155 153 151 156 159 162 168 170 175 180 182 183 183 183 184 184 185 185 187 187 187 187 186 186 186 186 185 184 185 183 181 181 182
171 171 171 180 190 187 177 166 158 140 134 127 136 151 160 167 170 174 178 184 188 191 191 191 191 192 194 195 197 199 200 200 198 198 198 197 197 198 199 199 199 199 199
169 165 164 173 173 161 150 146 138 123 120 125 141 162 160 168 173 177 180 187 190 194 199 198 199 200 201 202 205 207 208 208 208 209 209 209 209 210 211 213 212 211 211
166 161 162 162 157 146 151 159 134 136 140 148 166 172 173 174 174 180 185 189 193 198 201 206 207 207 209 211 212 213 213 214 215 216 217 217 216 216 218 221 222 222 222
165 160 158 157 149 145 150 142 132 126 140 158 171 158 192 194 182 188 191 191 197 202 205 206 208 212 215 217 218 219 218 218 218 219 220 220 222 223 225 227 228 230 230
165 160 162 156 153 159 164 154 137 131 132 132 96 46 349 289 213 207 196 185 197 203 203 206 205 208 214 221 225 225 223 221 221 220 221 222 224 225 227 230 233 236 237
170 172 164 166 160 155 155 156 141 135 156 144 131 110 31 337 303 229 205 198 201 200 201 207 206 209 213 215 222 224 225 224 224 223 224 226 227 228 230 233 236 239 239
177 174 169 165 164 163 167 172 159 153 165 181 154 149 155 213 267 300 234 213 198 196 205 207 208 212 213 215 218 221 223 223 223 223 224 225 227 230 233 235 239 241 242
179 178 173 168 166 166 170 180 171 161 154 173 200 200 178 162 160 253 304 258 214 206 206 209 208 210 210 211 215 217 219 220 222 223 224 225 226 229 233 238 241 243 244
186 185 178 173 171 171 177 176 164 165 164 167 175 177 160 128 138 156 230 274 275 235 213 208 205 208 210 211 215 219 219 220 222 224 226 227 229 231 234 238 242 244 245
190 189 181 178 177 174 179 183 180 174 175 170 171 169 165 166 185 170 198 228 242 256 231 216 210 210 211 213 217 221 220 221 223 225 228 229 231 233 235 239 243 244 246
194 196 187 180 180 180 180 180 181 182 179 179 183 187 184 188 176 168 172 205 234 266 265 238 222 214 214 213 218 219 219 222 224 226 229 231 234 237 239 241 242 244 247
199 192 187 184 184 182 184 180 183 190 183 187 192 184 183 197 184 176 172 167 194 282 285 263 254 221 220 214 218 216 219 222 226 229 231 233 236 239 241 243 244 245 247
198 191 188 184 186 184 181 175 183 190 185 192 194 190 192 203 193 190 177 172 167 202 253 260 260 241 222 218 220 215 219 224 225 229 233 236 239 241 243 244 245 246 247
193 186 185 183 185 184 181 179 182 186 184 197 195 190 203 207 199 191 184 181 172 176 221 247 242 250 224 224 222 213 219 225 228 231 235 239 243 245 246 247 248 248 249
185 184 185 183 186 187 182 181 186 184 188 201 204 200 217 210 197 200 183 178 179 168 205 256 251 252 215 226 217 221 228 229 236 237 239 243 246 248 249 250 251 252 253
185 187 183 183 188 188 183 184 188 188 189 197 205 205 222 215 206 206 190 194 193 186 186 229 251 243 233 231 225 233 238 239 238 243 243 247 250 252 253 253 254 255 256
182 185 183 185 188 184 183 187 186 187 195 201 200 200 212 204 213 211 203 205 213 204 185 198 235 241 250 242 225 255 258 262 257 256 252 253 255 258 258 259 259 259 259
173 175 179 180 178 174 179 187 183 182 191 198 201 201 202 200 208 208 209 211 208 207 200 200 228 243 247 255 185 236 272 268 271 272 266 262 264 266 267 267 266 265 264
169 164 165 167 167 173 190 189 186 187 186 194 202 208 214 217 218 210 208 203 197 198 202 207 227 238 245 237 228 226 242 268 277 255 267 275 277 277 277 274 269 268 267
152 147 155 158 163 183 184 184 184 184 186 195 210 217 227 230 231 224 221 203 192 196 203 204 221 233 246 236 234 228 230 258 280 266 239 274 259 265 271 271 272 272 268
146 147 156 153 159 176 181 186 185 182 190 204 213 217 230 234 225 230 233 227 219 214 199 192 211 228 233 226 218 236 233 233 242 248 221 269 266 265 270 275 276 273 274
148 155 159 159 154 181 192 195 187 179 190 207 207 204 210 235 230 216 225 235 240 236 222 213 219 232 234 226 214 222 233 250 266 262 210 250 262 261 272 274 273 272 278
141 146 141 142 145 153 165 178 170 169 180 205 212 206 199 221 246 211 205 238 261 271 257 244 245 248 250 251 229 210 249 257 280 278 225 224 262 275 273 267 270 273 279
126 122 112 108 108 82 54 129 155 149 163 197 188 202 186 208 262 218 208 229 259 271 291 299 280 280 274 276 252 217 220 235 256 273 261 222 254 272 287 274 270 278 282
Height
1552 1554 1556 1558 1559 1561 1562 1563 1565 1566 1567 1568 1569 1570 1570 1571 1572 1573 1573 1574 1575 1576 1577 1577 1578 1578 1579 1580 1581 1581 1582 1583 1583 1584 1584 1585 1585 1586 1586 1587 1587 1587 1588
1552 1554 1556 1558 1559 1561 1562 1564 1565 1566 1567 1568 1569 1570 1570 1572 1573 1573 1574 1574 1575 1576 1577 1577 1578 1579 1579 1580 1581 1581 1582 1583 1583 1584 1584 1585 1585 1586 1586 1587 1587 1588 1588
1551 1554 1555 1557 1559 1561 1562 1563 1565 1566 1567 1568 1569 1570 1571 1572 1572 1573 1574 1575 1575 1576 1576 1577 1578 1578 1579 1580 1580 1581 1582 1582 1583 1583 1584 1585 1585 1585 1586 1586 1587 1587 1588
1550 1553 1555 1557 1558 1560 1561 1563 1564 1565 1567 1568 1569 1570 1571 1571 1572 1573 1574 1574 1575 1576 1576 1577 1577 1578 1579 1579 1580 1580 1581 1582 1582 1583 1583 1584 1584 1585 1585 1586 1586 1587 1587
1549 1551 1554 1556 1557 1559 1560 1562 1563 1565 1566 1567 1568 1569 1570 1571 1572 1572 1573 1574 1574 1575 1576 1577 1577 1578 1578 1579 1579 1579 1580 1580 1581 1582 1582 1583 1583 1584 1584 1585 1585 1586 1586
1547 1550 1552 1554 1556 1558 1559 1561 1562 1564 1565 1566 1567 1568 1569 1570 1571 1571 1572 1572 1573 1574 1575 1576 1576 1577 1577 1578 1578 1578 1579 1579 1580 1580 1581 1581 1582 1582 1583 1583 1583 1584 1584
1545 1548 1550 1552 1554 1556 1558 1559 1561 1562 1564 1565 1566 1567 1568 1569 1569 1570 1570 1571 1572 1573 1574 1574 1575 1576 1576 1577 1577 1577 1577 1578 1578 1578 1579 1579 1580 1580 1580 1581 1581 1582 1582
1543 1545 1548 1550 1552 1554 1556 1558 1559 1560 1562 1564 1565 1566 1567 1569 1568 1568 1569 1570 1571 1571 1572 1573 1573 1574 1575 1575 1576 1576 1576 1576 1576 1576 1577 1577 1577 1578 1578 1578 1579 1579 1580
1540 1543 1546 1548 1550 1552 1554 1555 1557 1559 1560 1562 1563 1565 1565 1565 1566 1567 1567 1568 1569 1569 1570 1571 1572 1573 1573 1574 1574 1574 1574 1574 1574 1574 1575 1575 1575 1575 1575 1576 1576 1576 1576
1538 1541 1543 1546 1548 1550 1552 1553 1555 1557 1559 1560 1561 1563 1564 1564 1565 1565 1566 1566 1567 1568 1568 1569 1570 1570 1571 1572 1572 1572 1573 1573 1573 1572 1572 1572 1572 1573 1573 1573 1573 1573 1573
1535 1538 1541 1543 1545 1547 1549 1551 1553 1555 1556 1558 1559 1560 1561 1562 1563 1563 1563 1564 1565 1566 1566 1567 1568 1568 1569 1569 1570 1570 1570 1571 1570 1570 1570 1570 1570 1570 1570 1570 1570 1570 1570
1532 1535 1538 1540 1542 1544 1546 1548 1550 1552 1554 1556 1557 1558 1559 1560 1561 1561 1561 1562 1562 1563 1564 1565 1565 1566 1567 1567 1567 1568 1568 1568 1568 1568 1568 1568 1567 1567 1567 1567 1566 1566 1566
1528 1531 1534 1536 1539 1541 1543 1545 1547 1549 1551 1553 1554 1556 1557 1558 1559 1559 1560 1560 1560 1561 1561 1562 1563 1563 1564 1564 1564 1565 1565 1565 1565 1565 1565 1565 1565 1564 1564 1564 1563 1563 1563
1525 1528 1531 1533 1535 1538 1540 1542 1544 1546 1548 1550 1551 1553 1554 1555 1556 1557 1558 1558 1558 1558 1558 1559 1560 1560 1561 1561 1562 1562 1562 1562 1562 1562 1562 1562 1562 1561 1561 1561 1560 1560 1560
1521 1525 1527 1529 1532 1534 1537 1539 1541 1543 1544 1546 1548 1550 1551 1552 1553 1554 1554 1555 1556 1555 1555 1556 1556 1557 1558 1558 1559 1559 1559 1559 1559 1559 1559 1559 1558 1558 1558 1557 1557 1557 1556
1518 1520 1523 1526 1529 1531 1533 1536 1538 1539 1541 1543 1545 1546 1547 1548 1549 1550 1551 1552 1552 1553 1552 1552 1553 1554 1554 1555 1555 1555 1556 1556 1556 1556 1556 1555 1555 1554 1554 1554 1553 1553 1552
1514 1517 1520 1523 1525 1528 1530 1532 1534 1536 1538 1540 1541 1542 1543 1545 1546 1547 1548 1548 1549 1549 1549 1549 1550 1550 1550 1551 1551 1552 1552 1552 1552 1552 1552 1551 1551 1550 1550 1550 1549 1548 1548
1511 1514 1517 1519 1522 1524 1527 1529 1531 1533 1535 1536 1538 1539 1540 1541 1542 1543 1544 1544 1545 1545 1546 1545 1546 1546 1547 1547 1547 1548 1548 1548 1548 1547 1547 1547 1546 1546 1545 1545 1544 1543 1542
1508 1511 1514 1516 1519 1521 1523 1526 1528 1530 1531 1533 1534 1535 1536 1537 1538 1539 1540 1541 1541 1541 1541 1542 1542 1542 1542 1543 1543 1543 1543 1543 1543 1543 1542 1542 1541 1541 1540 1539 1539 1538 1537
1505 1508 1510 1513 1516 1518 1520 1522 1525 1526 1528 1529 1531 1532 1533 1533 1534 1535 1536 1536 1537 1537 1537 1537 1537 1537 1538 1538 1538 1538 1538 1538 1538 1538 1537 1537 1536 1535 1535 1534 1533 1532 1530
1503 1506 1508 1510 1513 1515 1517 1519 1521 1523 1524 1526 1527 1528 1529 1530 1530 1531 1532 1532 1533 1533 1533 1533 1533 1533 1533 1533 1533 1533 1533 1533 1532 1532 1531 1531 1530 1529 1528 1527 1526 1525 1524
1501 1504 1506 1508 1510 1512 1514 1516 1518 1519 1520 1522 1523 1524 1525 1526 1527 1527 1528 1528 1528 1529 1528 1529 1528 1528 1528 1529 1529 1528 1528 1527 1526 1527 1525 1524 1524 1522 1522 1521 1519 1518 1517
1500 1502 1504 1505 1507 1509 1512 1513 1515 1516 1517 1518 1520 1521 1521 1522 1523 1523 1524 1524 1524 1524 1524 1524 1524 1524 1524 1524 1524 1523 1522 1522 1520 1520 1519 1517 1517 1516 1515 1514 1512 1511 1510
1498 1500 1502 1504 1505 1507 1509 1511 1512 1513 1514 1515 1516 1517 1518 1518 1519 1520 1520 1519 1519 1519 1519 1519 1519 1519 1519 1519 1518 1518 1517 1516 1515 1515 1513 1511 1510 1508 1507 1506 1505 1503 1502
1496 1498 1500 1502 1504 1506 1507 1508 1509 1510 1511 1512 1512 1513 1514 1514 1515 1515 1516 1515 1515 1515 1515 1515 1515 1514 1514 1514 1513 1512 1511 1510 1508 1508 1507 1505 1503 1501 1499 1498 1497 1496 1494
1495 1497 1499 1501 1502 1503 1505 1505 1507 1507 1508 1508 1509 1510 1510 1511 1511 1511 1511 1511 1511 1511 1511 1510 1510 1510 1509 1508 1508 1507 1506 1505 1503 1502 1501 1500 1497 1495 1491 1490 1489 1488 1486